EW5254 Weather Reports


Display with metric or nautical units.
time (UTC)temp
F
wind
direction
speed
MPH
gust
MPH
rain 1hr
in
rain 24hr
in
rain mn
in
humidity
%
barometer
mb
20260831163030 82 204 9.0 16.0 0.00 0.00 0.00 43 1003.4
20260831161528 80 202 9.0 16.0 0.00 0.00 0.00 46 1003.5
20260831160029 80 205 12.0 19.0 0.00 0.00 0.00 46 1003.4
20260831154522 79 192 11.0 16.0 0.00 0.00 0.00 48 1003.2
20260831153021 79 215 12.0 19.0 0.00 0.00 0.00 47 1003.2
20260831151520 78 201 12.0 21.0 0.00 0.00 0.00 48 1003.0
20260831150016 77 184 13.0 23.0 0.00 0.00 0.00 50 1002.8
20260831144522 77 173 12.0 21.0 0.00 0.00 0.00 51 1002.6
20260831143011 76 172 11.0 19.0 0.00 0.00 0.00 52 1002.5
20260831141507 75 208 13.0 22.0 0.00 0.00 0.00 55 1002.5
20260831140006 74 147 14.0 21.0 0.00 0.00 0.00 55 1002.4
20260831134506 74 173 10.0 17.0 0.00 0.00 0.00 55 1002.4
20260831133004 73 167 12.0 20.0 0.00 0.00 0.00 57 1002.3
20260831131503 72 172 12.0 19.0 0.00 0.00 0.00 59 1002.2
20260831130112 71 169 11.0 16.0 0.00 0.00 0.00 60 1001.9
20260831124559 71 155 12.0 17.0 0.00 0.00 0.00 60 1001.9
20260831123056 72 196 13.0 19.0 0.00 0.00 0.00 60 1001.7
20260831121554 71 170 13.0 21.0 0.00 0.00 0.00 60 1001.7
20260831120053 70 190 7.0 15.0 0.00 0.00 0.00 62 1001.7
20260831114550 70 207 1.0 7.0 0.00 0.00 0.00 62 1001.8
20260831113050 71 219 5.0 10.0 0.00 0.00 0.00 60 1001.6
20260831111606 71 154 7.0 13.0 0.00 0.00 0.00 60 1001.3
20260831110117 71 136 7.0 12.0 0.00 0.00 0.00 60 1001.4
20260831104546 71 128 6.0 13.0 0.00 0.00 0.00 61 1001.4
20260831103044 72 145 6.0 14.0 0.00 0.00 0.00 60 1001.3
20260831101545 72 157 8.0 19.0 0.00 0.00 0.00 60 1001.2
20260831100043 72 115 8.0 21.0 0.00 0.00 0.00 60 1001.1
20260831094542 73 159 9.0 16.0 0.00 0.00 0.00 58 1001.0
20260831093041 73 143 6.0 17.0 0.00 0.00 0.00 58 1000.8
20260831091548 73 158 8.0 17.0 0.00 0.00 0.00 57 1000.7
20260831090040 73 155 11.0 20.0 0.00 0.00 0.00 57 1000.6
20260831084549 73 159 12.0 22.0 0.00 0.00 0.00 58 1000.6
20260831083046 73 146 9.0 20.0 0.00 0.00 0.00 58 1000.7
20260831081544 72 162 12.0 21.0 0.00 0.00 0.00 60 1000.8
20260831080034 72 167 13.0 22.0 0.00 0.00 0.00 60 1000.8
20260831074541 72 157 13.0 24.0 0.00 0.00 0.00 60 1001.1
20260831073100 72 130 15.0 24.0 0.00 0.00 0.00 60 1001.2
20260831071529 72 129 14.0 24.0 0.00 0.00 0.00 60 1001.2
20260831070034 73 169 16.0 22.0 0.00 0.00 0.00 59 1001.2
20260831064534 73 144 15.0 23.0 0.00 0.00 0.00 59 1001.3
20260831063023 73 155 13.0 24.0 0.00 0.00 0.00 59 1001.5
20260831061530 74 165 14.0 23.0 0.00 0.00 0.00 58 1001.6
20260831060019 74 188 13.0 24.0 0.00 0.00 0.00 57 1001.6
20260831054516 74 136 13.0 24.0 0.00 0.00 0.00 56 1001.7
20260831053021 75 177 17.0 25.0 0.00 0.00 0.00 55 1001.6
20260831051514 75 135 17.0 31.0 0.00 0.00 0.00 55 1001.5
20260831050028 76 109 17.0 26.0 0.00 0.00 0.00 54 1001.7
20260831044507 76 128 17.0 30.0 0.00 0.00 0.00 53 1001.7
20260831043009 76 147 17.0 29.0 0.00 0.00 0.00 52 1001.7
20260831041506 77 144 19.0 30.0 0.00 0.00 0.00 51 1001.4
20260831040020 77 147 17.0 31.0 0.00 0.00 0.00 49 1001.4
20260831034507 78 143 17.0 31.0 0.00 0.00 0.00 48 1001.2
20260831033005 78 161 17.0 30.0 0.00 0.00 0.00 47 1000.8
20260831031504 79 151 16.0 31.0 0.00 0.00 0.00 45 1001.0
20260831030012 79 138 18.0 29.0 0.00 0.00 0.00 43 1000.6
20260831024504 80 139 16.0 28.0 0.00 0.00 0.00 41 1000.3
20260831023003 81 174 16.0 25.0 0.00 0.00 0.00 40 1000.0
20260831021502 81 148 14.0 22.0 0.00 0.00 0.00 38 999.9
20260831020002 82 146 15.0 22.0 0.00 0.00 0.00 35 999.8
20260831014501 82 135 14.0 21.0 0.00 0.00 0.00 36 999.7
20260831013001 83 145 12.0 21.0 0.00 0.00 0.00 36 999.7
20260831011601 83 121 11.0 23.0 0.00 0.00 0.00 36 999.8
20260831004559 85 97 9.0 16.0 0.00 0.00 0.00 34 999.8
20260831003058 85 126 7.0 14.0 0.00 0.00 0.00 34 999.8
20260831001558 86 121 4.0 9.0 0.00 0.00 0.00 34 999.8
20260830234601 87 144 4.0 11.0 0.00 0.00 0.00 34 999.8
20260830233103 88 99 8.0 13.0 0.00 0.00 0.00 33 999.8
20260830231556 87 143 6.0 11.0 0.00 0.00 0.00 34 999.7
20260830230055 87 82 10.0 16.0 0.00 0.00 0.00 33 999.9
20260830224554 88 116 6.0 12.0 0.00 0.00 0.00 33 999.8
20260830223053 88 115 6.0 15.0 0.00 0.00 0.00 34 999.9
20260830221552 88 134 7.0 13.0 0.00 0.00 0.00 34 1000.0
20260830214550 88 150 5.0 14.0 0.00 0.00 0.00 33 1000.1
20260830213048 90 232 4.0 14.0 0.00 0.00 0.00 32 1000.3
20260830211549 90 130 6.0 12.0 0.00 0.00 0.00 32 1000.4
20260830210044 89 155 5.0 16.0 0.00 0.00 0.00 33 1000.8
20260830204554 90 130 4.0 11.0 0.00 0.00 0.00 32 1001.1
20260830203039 90 106 7.0 14.0 0.00 0.00 0.00 33 1001.3
20260830201535 88 111 6.0 13.0 0.00 0.00 0.00 35 1001.7
20260830200037 88 217 8.0 13.0 0.00 0.00 0.00 35 1001.9
20260830194530 85 197 3.0 14.0 0.00 0.00 0.00 38 1002.1
20260830193029 84 64 6.0 10.0 0.00 0.00 0.00 38 1002.4
20260830191607 85 188 2.0 9.0 0.00 0.00 0.00 38 1002.6
20260830190033 85 202 10.0 13.0 0.00 0.00 0.00 37 1002.5
20260830184527 87 114 6.0 10.0 0.00 0.00 0.00 36 1002.8
20260830183025 87 5 2.0 7.0 0.00 0.00 0.00 35 1003.0
20260830181524 85 9 2.0 14.0 0.00 0.00 0.00 37 1003.3
20260830180032 86 338 0.0 8.0 0.00 0.00 0.00 37 1003.6
20260830174526 85 158 3.0 8.0 0.00 0.00 0.00 37 1003.7
20260830173020 85 215 7.0 11.0 0.00 0.00 0.00 38 1004.0
20260830171519 84 225 7.0 15.0 0.00 0.00 0.00 39 1004.0
20260830170018 84 196 8.0 11.0 0.00 0.00 0.00 40 1004.1
20260830164514 83 162 6.0 12.0 0.00 0.00 0.00 43 1004.2